Regional Weather Roundup
Issued by NWS Wakefield, VA

Home | Current Version | Previous Version | Graphics & Text | Print | Product List | Glossary On
Versions: 1 2 3 4 5 6 7 8 9 10 11 12 13 14 15 16 17 18 19 20 21 22 23 24 25
000
ASUS41 KAKQ 172015
RWRAKQ

REGIONAL WEATHER ROUNDUP
NATIONAL WEATHER SERVICE WAKEFIELD VA
300 PM EST SAT FEB 17 2018

Note: "fair" indicates few or no clouds below 12,000 feet with no
significant weather and/or obstructions to visibility. * = Denotes
station may not report precipitation (e.g., rain,snow,etc.),
thunder or fog.

VAZ042-051-052>054-056-172100-
NORTHERN VIRGINIA

CITY           SKY/WX    TMP DP  RH WIND       PRES   REMARKS
WASH NATIONAL  LGT SNOW  36  31  82 S7        30.27R
DULLES         LGT SNOW  35  31  85 CALM      30.24F VSB 1
FORT BELVOIR   FLURRIES  37  30  77 CALM      30.25R
QUANTICO       LGT RAIN  40  31  70 E7        30.25S
FREDERICKSBRG* HVY RAIN  40  33  77 NE7       30.23S
STAFFORD*      RAIN      38  34  84 NE7       30.27F
WARRENTON      LGT RAIN  37  30  75 CALM      30.21F
CULPEPER*      LGT SNOW  36  31  83 CALM      30.22F
MANASSAS*      MIX PCPN  36  31  82 SE3       30.24F
LEESBURG*      LGT SNOW  36  34  93 CALM      30.23F VSB 1
WINCHESTER     LGT SNOW  32  30  93 SE7       30.19F
FRONT ROYAL*   CLOUDY    32  32 100 CALM      30.16F VSB 1/2
LURAY*         LGT SNOW  32  32 100 CALM      30.17F
$$

VAZ048-049-060>072-079>083-172100-
CENTRAL AND SOUTH CENTRAL VIRGINIA

CITY           SKY/WX    TMP DP  RH WIND       PRES   REMARKS
RICHMOND       CLOUDY    42  33  70 SE7       30.19F
CHESTERFIELD*  LGT RAIN  42  33  70 VRB5      30.18F
PETERSBURG*    CLOUDY    43  32  65 E6        30.17F
HANOVER        CLOUDY    43  31  62 VRB3      30.22S
TAPPAHANNOCK*  DRIZZLE   42  34  73 E7        30.20F
QUINTON*       CLOUDY    42  33  72 E5        30.18F
CHARLOTTSVILLE LGT RAIN  35  32  88 NE7       30.18F FOG
GORDONSVILLE*  CLOUDY    35  33  94 CALM      30.20F FOG
ORANGE*        RAIN      34  32  93 CALM      30.20F
LOUISA*        LGT RAIN  35  33  91 NE3       30.23F FOG
BUMPASS*       CLOUDY    38  32  77 CALM      30.22R
FARMVILLE*     RAIN      38  38 100 NE5       30.16S
CREWE*         CLOUDY    38  38 100 N3        30.17F
FORT PICKETT*  CLOUDY    40  35  82 E3        30.15F
CHASE CITY*    CLOUDY    39  36  86 CALM      30.15S
CLARKSVILLE*   CLOUDY    39  39 100 E3        30.14F
SOUTH HILL*    CLOUDY    40  38  93 CALM      30.20F
LAWRENCEVILLE* CLOUDY    42  36  80 SE5       30.15S
EMPORIA*       LGT RAIN  43  37  81 E7        30.16F
$$

VAZ088>098-172100-
SOUTHEAST VIRGINIA

CITY           SKY/WX    TMP DP  RH WIND       PRES   REMARKS
NORFOLK        LGT RAIN  44  36  73 E7        30.17F
VIRGINIA BEACH LGT RAIN  44  36  73 E5        30.17F
NORFOLK NAVAL  CLOUDY    44  34  67 E9        30.19F
WEST POINT*    CLOUDY    42  31  66 E12       30.19F
SALUDA*        CLOUDY    40  30  66 E6        30.21F
NEWPORT NEWS   CLOUDY    43  32  65 E7        30.18F
LANGLEY AFB    CLOUDY    45  37  76 NE14      29.99F
FORT EUSTIS    CLOUDY    43  31  62 E7        30.16F
WILLIAMSBURG*  CLOUDY    45  34  65 E3        30.19F
HR EXEC AP*    LGT RAIN  43  37  81 E8        30.17F
FRANKLIN*      CLOUDY    45  37  73 E8        30.15F
US460-WAKEFLD  CLOUDY    44  35  70 E7        30.16F
$$

VAZ020-022-025-037-045-172100-
WEST CENTRAL AND SOUTHWEST VIRGINIA

CITY           SKY/WX    TMP DP  RH WIND       PRES   REMARKS
STAUNTON*      LGT RAIN  31  30  95 E5        30.16F
WAYNESBORO*    CLOUDY    31  31  99 E6        30.13F
HOT SPRINGS VA MIX PCPN  28  28 100 CALM      29.99F VSB<1/4
LYNCHBURG      LGT RAIN  34  32  92 NE7       30.15S FOG
DANVILLE       LGT RAIN  40  34  79 NE5       30.16S
SOUTH BOSTON*  CLOUDY    41  32  71 CALM      30.17R
MARTINSVILLE   DRIZZLE   37  36  95 CALM      30.17F
ROANOKE        CLOUDY    35  33  92 E10       30.13F FOG
BLACKSBURG     CLOUDY    34  33  98 E9        30.08F FOG
DUBLIN*        CLOUDY    37  36  96 E8        30.05F
MARION*        CLOUDY    43  37  80 NE10      29.98F
HILLSVILLE*    CLOUDY    35  34  96 S9G22     30.00F
RICHLANDS*     RAIN      41  40  97 NW7       29.99R
WISE*          RAIN      41  41 100 NW9       30.04R
ABINGDON*      HVY RAIN  46  44  92 N13       29.97R
$$

MDZ021>025-VAZ099-100-172100-
SOUTHERN MARYLAND AND THE DELMARVA PENINSULA

CITY           SKY/WX    TMP DP  RH WIND       PRES   REMARKS
PATUXENT RIVER CLOUDY    40  31  70 CALM      30.25F
BAY BRIDGE APT MIX PCPN  37  30  75 N5        30.27S
LEONARDTOWN    CLOUDY    39  28  65 CALM      30.27R
DOVER          PTSUNNY   39  29  68 E6        30.29R
GEORGETOWN     LGT RAIN  41  30  65 NE7       30.27S
EASTON         LGT RAIN  41  28  60 NE5       30.32R
CAMBRIDGE      CLOUDY    41  30  65 N5        30.27R
SALISBURY      CLOUDY    41  32  70 SE9       30.23F
OCEAN CITY     CLOUDY    40  32  73 NE7       30.24F
WALLOPS ISLAND LGT RAIN  42  33  70 NE10      30.22F
ACCOMACK*      LGT RAIN  41  34  75 E6        30.21F
$$

NCZ012>017-030>032-172100-
NORTH CENTRAL AND EASTERN NORTH CAROLINA

CITY           SKY/WX    TMP DP  RH WIND       PRES   REMARKS
ROANOKE RAPIDS DRIZZLE   43  41  93 CALM      30.15F
RALEIGH        CLOUDY    43  41  93 SE3       30.14F FOG
ELIZABETH CITY LGT RAIN  45  43  93 E9        30.17F FOG
AHOSKIE*       DRIZZLE   44  42  93 E6        30.16F
EDENTON*       CLOUDY    46  44  90 E7        30.16F FOG
CURRITUCK*     RAIN      45  40  83 E7        30.18F
KILL DEVIL HLS DRIZZLE  N/A N/A N/A CALM      30.14F
MANTEO         CLOUDY    46  44  95 NE10      30.16F FOG
CAPE HATTERAS  CLOUDY    51  48  89 VRB7      30.13F
TARBORO*       NOT AVBL
GOLDSBORO      CLOUDY    49  41  74 NE6       30.14S
WASHINGTON     CLOUDY    46  44  93 E7        30.15F
GREENVILLE     CLOUDY    46  43  87 E7        30.16F
NEW BERN       CLOUDY    50  42  74 E9        30.16F
WILMINGTON     CLOUDY    53  47  79 E8        30.12F
$$

VAZ048-172100-
ELSEWHERE

CITY           SKY/WX    TMP DP  RH WIND       PRES   REMARKS
HARRISBURG PA  CLOUDY    38  24  57 S10       30.18F
BALTIMORE      LGT SNOW  36  30  79 SE6       30.26S FOG
ANNAPOLIS      LGT SNOW  38  31  76 CALM      30.27S
ANDREWS AFB    LGTSLEET  36  30  79 E6        30.24S
PHILADELPHIA   CLOUDY    41  24  51 S7        30.29R
HENDERSON NC   PTSUNNY   39  36  91 SE3       30.14F FOG
GREENSBORO     DRIZZLE   41  40  96 E5        30.12S FOG
ROCKY MOUNT    LGT RAIN  45  41  86 CALM      30.15F FOG
$$

VAZ100-172100-
MARINE

STATION/POSITION TIME  TEMP    WIND        PRES    WAVE   SWELL
                       AIR SEA DIR/SP/G            HT/PER HT/PER
                 (UTC) (F)     (DEG/KT/KT) (MB)    (FT/S) (FT/S)
BRANDYWINE LGT   1948   38      CALM  /  2 1025.7R
CAPE MAY NJ      1942   39 40   70/  6/  8 1024.9R
LEWES DE         1948   38 41   50/  5/  6 1024.8R
15NM E FENWICK I 1950   40 42  340/  8/ 10 1024.8F   3/10   2/10
OCEAN-CITY-INLET 1948   39 41   80/  4/  7 1024.3F
WACHAPREAGUE VA  1948   41 49   50/  8/ 11 1023.0F
THOMAS POINT MD  2000   37 38                N/A
GOOSES REEF MD   2000   38 38  270/  2/  4 1025.4    1
COVE POINT MD    1948   38      30/  3/  4 1025.1F
SOLOMONS ISLAND  1948   39 40   90/  2/  3 1024.3R
BISHOPS HEAD MD  1948   42 44  100/  6/  9 1024.4R
POTOMAC MD       2000   39 39  290/  6/  6 1023.5    1/ 2
CAMBRIDGE MD     1948   41 43              1025.9R
LEWISETTA VA     1948   41 42  130/  5/  6 1023.9F
RAPPAHANNOCK LGT 1936           80/  9/ 10 1023.5F
STINGRAY PT      2000   40 42  120/  4/  6 1023.9    1/ 3
YORK RVR RNG VA  1936   41     100/  7/  9 1023.4F
YORKTOWN VA      1936   42 44  100/ 10/ 12 1022.4F
DOMINION TERM VA 1936   43      20/  2/  5 1022.4F
KIPTOPEKE VA     1936      44   90/  8/ 10   N/A
CAPE HENRY VA    1936   42      50/  6/  7   N/A
S CRANEY ISL VA  1936   45     190/  1/  2 1022.2F
CAPE HENRY BUOY  2000      44                N/A     4/ 6
1ST LANDING BUOY 2000   42 44   90/  8/ 10 1022.2    2/ 3
CAPE CHARLES BUO 1951      43                N/A     4/ 6
64NM E OF VA BCH 1950   50 50   90/ 14/ 16 1021.7F   5/ 7   3/ 7
DUCK PIER NC     1936   44 44   30/  8/  9 1021.1F
44100 DUCK FRF   1945      45                N/A     5/ 7
44056 DUCK FRF   2000      45                N/A     5/ 7
OREGON INLET NC  1936   46 49   10/  7/  9 1021.2F
HATTERAS NC      1936   51 58   50/ 11/ 15 1020.3F
DIAMOND SHLS NC  1950   64 70  130/ 14/ 19 1020.3F   5/ 9   3/ 9
CAPE LOOKOUT NC  2000           50/ 14/ 16 1020.0F
$$




USA.gov is the U.S. government's official web portal to all federal, state and local government web resources and services.